| time (UTC) | temp F | wind direction | speed knots | gust knots | rain 1hr in | rain 24hr in | rain mn in | humidity % | barometer mb |
| 20260504232023 | 57 | 292 | 0.0 | 0.0 | 0.00 | 0.00 | 0.00 | 66 | 1007.5 |
| 20260504231937 | 57 | 107 | 0.0 | 0.9 | 0.00 | 0.00 | 0.00 | 65 | 1005.5 |
| 20260504231433 | 58 | 89 | 0.0 | 1.7 | 0.00 | 0.00 | 0.00 | 64 | 1005.4 |
| 20260504231023 | 59 | 292 | 0.0 | 0.0 | 0.00 | 0.00 | 0.00 | 63 | 1007.5 |
| 20260504230929 | 59 | 89 | 0.0 | 0.9 | 0.00 | 0.00 | 0.00 | 63 | 1005.3 |
| 20260504230426 | 60 | 118 | 0.0 | 0.0 | 0.00 | 0.00 | 0.00 | 62 | 1005.3 |
| 20260504230122 | 60 | 292 | 0.0 | 0.0 | 0.00 | 0.00 | 0.00 | 59 | 1007.3 |
| 20260504225926 | 60 | 77 | 0.0 | 0.0 | 0.00 | 0.00 | 0.00 | 60 | 1005.2 |
| 20260504225422 | 61 | 84 | 0.0 | 0.0 | 0.00 | 0.00 | 0.00 | 54 | 1005.4 |
| 20260504224919 | 61 | 0 | 0.0 | 0.9 | 0.00 | 0.00 | 0.00 | 54 | 1005.3 |
| 20260504224415 | 61 | 249 | 0.0 | 2.6 | 0.00 | 0.00 | 0.00 | 53 | 1005.2 |
| 20260504224221 | 61 | 294 | 0.9 | 4.3 | 0.00 | 0.00 | 0.00 | 55 | 1007.2 |
| 20260504223913 | 61 | 354 | 0.9 | 1.7 | 0.00 | 0.00 | 0.00 | 53 | 1005.2 |
| 20260504223408 | 62 | 10 | 1.7 | 1.7 | 0.00 | 0.00 | 0.00 | 52 | 1005.1 |
| 20260504223224 | 62 | 270 | 0.0 | 0.0 | 0.00 | 0.00 | 0.00 | 54 | 1007.2 |
| 20260504222904 | 62 | 308 | 1.7 | 1.7 | 0.00 | 0.00 | 0.00 | 50 | 1005.1 |
| 20260504222402 | 62 | 288 | 0.0 | 4.3 | 0.00 | 0.00 | 0.00 | 49 | 1004.9 |
| 20260504222223 | 62 | 292 | 0.0 | 0.9 | 0.00 | 0.00 | 0.00 | 54 | 1007.2 |
| 20260504221900 | 62 | 249 | 1.7 | 3.5 | 0.00 | 0.00 | 0.00 | 51 | 1005.1 |
| 20260504221356 | 62 | 315 | 1.7 | 10.4 | 0.00 | 0.00 | 0.00 | 49 | 1005.0 |
| 20260504221321 | 62 | 318 | 0.9 | 4.3 | 0.00 | 0.00 | 0.00 | 54 | 1007.1 |
| 20260504220854 | 63 | 243 | 2.6 | 3.5 | 0.00 | 0.00 | 0.00 | 49 | 1005.0 |
| 20260504220350 | 63 | 281 | 2.6 | 6.1 | 0.00 | 0.00 | 0.00 | 48 | 1005.2 |
| 20260504215847 | 63 | 272 | 1.7 | 2.6 | 0.00 | 0.00 | 0.00 | 51 | 1005.0 |
| 20260504215344 | 62 | 335 | 0.0 | 4.3 | 0.00 | 0.00 | 0.00 | 50 | 1005.0 |
| 20260504215324 | 62 | 294 | 0.9 | 3.5 | 0.00 | 0.00 | 0.00 | 54 | 1007.2 |
| 20260504214840 | 62 | 267 | 1.7 | 3.5 | 0.00 | 0.00 | 0.00 | 50 | 1005.1 |
| 20260504214337 | 62 | 236 | 1.7 | 3.5 | 0.00 | 0.00 | 0.00 | 50 | 1005.1 |
| 20260504214321 | 62 | 302 | 2.6 | 7.8 | 0.00 | 0.00 | 0.00 | 54 | 1007.2 |
| 20260504213833 | 62 | 280 | 0.9 | 3.5 | 0.00 | 0.00 | 0.00 | 50 | 1005.0 |
| 20260504213329 | 62 | 295 | 4.3 | 4.3 | 0.00 | 0.00 | 0.00 | 49 | 1005.1 |
| 20260504212827 | 64 | 345 | 3.5 | 7.8 | 0.00 | 0.00 | 0.00 | 48 | 1005.0 |
| 20260504212323 | 64 | 241 | 6.1 | 9.6 | 0.00 | 0.00 | 0.00 | 47 | 1004.9 |
| 20260504211821 | 64 | 245 | 6.1 | 7.0 | 0.00 | 0.00 | 0.00 | 47 | 1004.8 |
| 20260504211316 | 64 | 305 | 2.6 | 6.1 | 0.00 | 0.00 | 0.00 | 48 | 1004.6 |
| 20260504210814 | 65 | 225 | 5.2 | 5.2 | 0.00 | 0.00 | 0.00 | 45 | 1004.7 |
| 20260504210521 | 62 | 325 | 3.5 | 7.0 | 0.00 | 0.00 | 0.00 | 55 | 1006.8 |
| 20260504210422 | 62 | 321 | 2.6 | 5.2 | 0.00 | 0.00 | 0.00 | 55 | 1006.6 |
| 20260504210311 | 64 | 306 | 2.6 | 13.9 | 0.00 | 0.00 | 0.00 | 48 | 1004.6 |
| 20260504205809 | 63 | 257 | 1.7 | 11.3 | 0.00 | 0.00 | 0.00 | 47 | 1004.8 |
| 20260504205521 | 62 | 257 | 1.7 | 6.1 | 0.00 | 0.00 | 0.00 | 54 | 1006.5 |
| 20260504205306 | 63 | 301 | 7.0 | 10.4 | 0.00 | 0.00 | 0.00 | 49 | 1004.7 |
| 20260504204804 | 63 | 335 | 1.7 | 8.7 | 0.00 | 0.00 | 0.00 | 50 | 1004.8 |
| 20260504204523 | 62 | 302 | 4.3 | 7.8 | 0.00 | 0.00 | 0.00 | 54 | 1006.5 |
| 20260504204302 | 63 | 336 | 3.5 | 5.2 | 0.00 | 0.00 | 0.00 | 50 | 1004.6 |
| 20260504203801 | 63 | 321 | 4.3 | 8.7 | 0.00 | 0.00 | 0.00 | 51 | 1004.7 |
| 20260504203524 | 63 | 264 | 1.7 | 3.5 | 0.00 | 0.00 | 0.00 | 54 | 1006.7 |
| 20260504203258 | 64 | 318 | 2.6 | 7.8 | 0.00 | 0.00 | 0.00 | 48 | 1004.6 |
| 20260504202758 | 63 | 296 | 3.5 | 8.7 | 0.00 | 0.00 | 0.00 | 50 | 1004.5 |
| 20260504202256 | 64 | 249 | 3.5 | 3.5 | 0.00 | 0.00 | 0.00 | 48 | 1004.6 |
| 20260504201753 | 62 | 340 | 1.7 | 7.8 | 0.00 | 0.00 | 0.00 | 51 | 1004.6 |
| 20260504201525 | 62 | 215 | 0.9 | 3.5 | 0.00 | 0.00 | 0.00 | 54 | 1006.8 |
| 20260504201250 | 61 | 273 | 7.0 | 10.4 | 0.00 | 0.00 | 0.00 | 52 | 1004.6 |
| 20260504200748 | 61 | 272 | 8.7 | 13.0 | 0.00 | 0.00 | 0.00 | 51 | 1004.6 |
| 20260504200622 | 63 | 302 | 3.5 | 8.7 | 0.00 | 0.00 | 0.00 | 55 | 1006.5 |
| 20260504200243 | 62 | 264 | 4.3 | 6.1 | 0.00 | 0.00 | 0.00 | 53 | 1004.4 |
| 20260504195740 | 63 | 254 | 5.2 | 10.4 | 0.00 | 0.00 | 0.00 | 49 | 1004.4 |
| 20260504195623 | 62 | 212 | 1.7 | 6.1 | 0.00 | 0.01 | 0.00 | 55 | 1006.5 |
| 20260504195236 | 63 | 232 | 6.1 | 12.2 | 0.00 | 0.00 | 0.00 | 49 | 1004.4 |
| 20260504194733 | 64 | 295 | 3.5 | 5.2 | 0.00 | 0.00 | 0.00 | 48 | 1004.4 |
| 20260504194722 | 64 | 315 | 2.6 | 6.1 | 0.00 | 0.01 | 0.00 | 55 | 1006.2 |
| 20260504194229 | 63 | 238 | 8.7 | 13.0 | 0.00 | 0.00 | 0.00 | 51 | 1004.4 |
| 20260504193726 | 62 | 229 | 3.5 | 12.2 | 0.00 | 0.00 | 0.00 | 51 | 1004.3 |
| 20260504193722 | 64 | 352 | 3.5 | 11.3 | 0.00 | 0.01 | 0.00 | 58 | 1006.4 |
| 20260504193223 | 62 | 301 | 7.8 | 11.3 | 0.00 | 0.00 | 0.00 | 52 | 1004.3 |
| 20260504192722 | 62 | 267 | 3.5 | 9.6 | 0.00 | 0.01 | 0.00 | 59 | 1006.5 |
| 20260504192219 | 61 | 259 | 7.0 | 7.8 | 0.00 | 0.00 | 0.00 | 56 | 1004.4 |
| 20260504191723 | 61 | 198 | 1.7 | 3.5 | 0.00 | 0.01 | 0.00 | 58 | 1006.3 |
| 20260504191718 | 61 | 256 | 5.2 | 15.6 | 0.00 | 0.00 | 0.00 | 55 | 1004.5 |
| 20260504191214 | 61 | 288 | 5.2 | 18.2 | 0.00 | 0.00 | 0.00 | 57 | 1004.3 |
| 20260504190723 | 60 | 317 | 2.6 | 5.2 | 0.00 | 0.01 | 0.00 | 62 | 1006.3 |
| 20260504190709 | 62 | 278 | 5.2 | 8.7 | 0.00 | 0.00 | 0.00 | 57 | 1004.5 |
| 20260504190206 | 61 | 272 | 4.3 | 11.3 | 0.00 | 0.00 | 0.00 | 57 | 1004.5 |
| 20260504185821 | 59 | 322 | 1.7 | 4.3 | 0.00 | 0.02 | 0.00 | 66 | 1006.6 |
| 20260504185703 | 61 | 220 | 7.0 | 9.6 | 0.00 | 0.00 | 0.00 | 57 | 1004.7 |
| 20260504185159 | 60 | 244 | 6.1 | 10.4 | 0.00 | 0.00 | 0.00 | 59 | 1004.7 |
| 20260504184655 | 58 | 53 | 1.7 | 6.1 | 0.00 | 0.00 | 0.00 | 64 | 1004.9 |
| 20260504184150 | 57 | 263 | 6.1 | 9.6 | 0.00 | 0.00 | 0.00 | 63 | 1005.0 |
| 20260504183921 | 58 | 259 | 0.0 | 2.6 | 0.00 | 0.04 | 0.00 | 65 | 1007.2 |
| 20260504183647 | 57 | 225 | 2.6 | 7.8 | 0.00 | 0.00 | 0.00 | 64 | 1004.8 |
| 20260504183145 | 58 | 262 | 5.2 | 11.3 | 0.00 | 0.00 | 0.00 | 63 | 1004.9 |
| 20260504182643 | 57 | 257 | 2.6 | 7.8 | 0.00 | 0.00 | 0.00 | 65 | 1005.0 |
| 20260504182140 | 56 | 279 | 4.3 | 7.8 | 0.00 | 0.00 | 0.00 | 67 | 1004.9 |
| 20260504181922 | 57 | 252 | 0.9 | 3.5 | 0.00 | 0.06 | 0.00 | 66 | 1007.2 |
| 20260504181637 | 57 | 259 | 6.1 | 7.0 | 0.00 | 0.00 | 0.00 | 67 | 1005.1 |
| 20260504181135 | 56 | 241 | 4.3 | 8.7 | 0.00 | 0.00 | 0.00 | 67 | 1005.2 |
| 20260504180922 | 57 | 349 | 1.7 | 4.3 | 0.00 | 0.07 | 0.00 | 66 | 1007.3 |
| 20260504180634 | 56 | 221 | 6.1 | 9.6 | 0.00 | 0.00 | 0.00 | 67 | 1005.1 |
| 20260504180132 | 56 | 286 | 6.1 | 7.0 | 0.00 | 0.00 | 0.00 | 65 | 1005.3 |
| 20260504175629 | 56 | 265 | 3.5 | 8.7 | 0.00 | 0.00 | 0.00 | 67 | 1005.2 |
| 20260504175125 | 56 | 298 | 7.0 | 11.3 | 0.00 | 0.00 | 0.00 | 65 | 1005.3 |
| 20260504174923 | 56 | 313 | 0.9 | 6.1 | 0.00 | 0.08 | 0.00 | 68 | 1007.4 |
| 20260504174624 | 56 | 226 | 1.7 | 5.2 | 0.00 | 0.00 | 0.00 | 66 | 1005.5 |
| 20260504174120 | 56 | 243 | 4.3 | 7.0 | 0.00 | 0.00 | 0.00 | 67 | 1005.3 |
| 20260504173922 | 56 | 299 | 0.9 | 3.5 | 0.00 | 0.09 | 0.00 | 67 | 1007.5 |
| 20260504173617 | 55 | 214 | 7.8 | 8.7 | 0.00 | 0.00 | 0.00 | 66 | 1005.4 |
| 20260504173115 | 56 | 253 | 5.2 | 6.1 | 0.00 | 0.00 | 0.00 | 67 | 1005.5 |
| 20260504172611 | 55 | 275 | 2.6 | 6.1 | 0.00 | 0.00 | 0.00 | 68 | 1005.6 |
| 20260504172108 | 55 | 223 | 3.5 | 12.2 | 0.00 | 0.00 | 0.00 | 67 | 1005.3 |
| 20260504172022 | 56 | 314 | 1.7 | 5.2 | 0.00 | 0.10 | 0.00 | 63 | 1007.4 |
| 20260504171604 | 55 | 273 | 3.5 | 9.6 | 0.00 | 0.00 | 0.00 | 65 | 1005.4 |
| 20260504171101 | 56 | 254 | 7.8 | 8.7 | 0.00 | 0.00 | 0.00 | 62 | 1005.3 |
| 20260504171024 | 57 | 292 | 0.9 | 2.6 | 0.00 | 0.11 | 0.00 | 60 | 1007.2 |
| 20260504170557 | 57 | 294 | 3.5 | 6.1 | 0.00 | 0.00 | 0.00 | 59 | 1005.1 |
| 20260504170122 | 57 | 159 | 1.7 | 3.5 | 0.00 | 0.11 | 0.00 | 58 | 1007.2 |
| 20260504151025 | 58 | 188 | 1.7 | 3.5 | 0.00 | 0.22 | 0.00 | 54 | 1007.2 |
| 20260504150941 | 57 | 230 | 2.6 | 4.3 | 0.00 | 0.00 | 0.00 | 49 | 1005.2 |
| 20260504150437 | 57 | 297 | 5.2 | 5.2 | 0.00 | 0.00 | 0.00 | 50 | 1005.2 |
| 20260504141123 | 58 | 250 | 1.7 | 3.5 | 0.00 | 0.26 | 0.00 | 53 | 1008.2 |
| 20260504140904 | 55 | 133 | 7.0 | 7.8 | 0.00 | 0.00 | 0.00 | 48 | 1006.2 |
| 20260504140400 | 54 | 239 | 5.2 | 5.2 | 0.00 | 0.00 | 0.00 | 49 | 1006.2 |
| 20260504130430 | 56 | 186 | 2.6 | 5.2 | 0.00 | 0.30 | 0.00 | 52 | 1008.9 |
| 20260504130325 | 53 | 290 | 1.7 | 7.0 | 0.00 | 0.00 | 0.00 | 48 | 1006.7 |
| 20260504120248 | 47 | 131 | 0.0 | 5.2 | 0.00 | 0.00 | 0.00 | 57 | 1007.1 |
| 20260504110716 | 41 | 291 | 0.0 | 1.7 | 0.00 | 0.00 | 0.00 | 70 | 1007.1 |
| 20260504110521 | 43 | 292 | 0.0 | 0.0 | 0.00 | 0.44 | 0.00 | 81 | 1008.9 |
| 20260504110423 | 43 | 292 | 0.0 | 0.9 | 0.00 | 0.44 | 0.00 | 81 | 1008.9 |
| 20260504110212 | 41 | 269 | 1.7 | 4.3 | 0.00 | 0.00 | 0.00 | 69 | 1007.2 |
| 20260504100523 | 36 | 290 | 0.0 | 0.0 | 0.00 | 0.52 | 0.00 | 90 | 1008.2 |
| 20260504100130 | 37 | 149 | 1.7 | 1.7 | 0.00 | 0.00 | 0.00 | 81 | 1006.6 |
| 20260504081723 | 36 | 169 | 0.0 | 1.7 | 0.00 | 0.56 | 0.00 | 90 | 1007.5 |
| 20260504081523 | 35 | 134 | 1.7 | 1.7 | 0.00 | 0.00 | 0.00 | 85 | 1006.2 |
| 20260504081019 | 35 | 109 | 1.7 | 1.7 | 0.00 | 0.00 | 0.00 | 84 | 1006.3 |
| 20260504080722 | 36 | 247 | 0.0 | 0.0 | 0.00 | 0.56 | 0.00 | 91 | 1007.9 |
| 20260504080515 | 36 | 119 | 1.7 | 1.7 | 0.00 | 0.00 | 0.00 | 83 | 1006.5 |
| 20260504050334 | 37 | 193 | 1.7 | 2.6 | 0.00 | 0.00 | 0.00 | 79 | 1005.6 |
| 20260504050022 | 39 | 267 | 0.0 | 0.0 | 0.00 | 0.57 | 0.00 | 80 | 1007.2 |
| 20260504045832 | 36 | 132 | 0.0 | 0.9 | 0.00 | 0.00 | 0.00 | 84 | 1005.7 |
| 20260504045331 | 37 | 113 | 0.0 | 1.7 | 0.00 | 0.00 | 0.00 | 81 | 1005.6 |
| 20260504045024 | 39 | 247 | 0.0 | 0.0 | 0.00 | 0.57 | 0.00 | 79 | 1007.2 |
| 20260504044829 | 37 | 97 | 0.9 | 1.7 | 0.00 | 0.00 | 0.00 | 79 | 1005.7 |
| 20260504044326 | 37 | 115 | 0.9 | 1.7 | 0.00 | 0.00 | 0.00 | 79 | 1005.7 |
| 20260504044021 | 40 | 270 | 0.0 | 0.0 | 0.00 | 0.57 | 0.00 | 79 | 1007.2 |
| 20260504043824 | 38 | 114 | 0.9 | 1.7 | 0.00 | 0.00 | 0.00 | 76 | 1005.8 |
| 20260504043320 | 39 | 120 | 1.7 | 1.7 | 0.00 | 0.00 | 0.00 | 76 | 1006.0 |
| 20260504042818 | 39 | 109 | 1.7 | 1.7 | 0.00 | 0.00 | 0.00 | 80 | 1005.8 |
| 20260504042314 | 39 | 129 | 0.9 | 1.7 | 0.00 | 0.00 | 0.00 | 77 | 1005.7 |
| 20260504042122 | 41 | 332 | 0.0 | 0.0 | 0.00 | 0.57 | 0.00 | 75 | 1007.2 |
| 20260504041810 | 39 | 103 | 0.0 | 1.7 | 0.00 | 0.00 | 0.00 | 75 | 1005.6 |
| 20260504041306 | 40 | 218 | 0.0 | 1.7 | 0.00 | 0.00 | 0.00 | 69 | 1005.8 |
| 20260504041123 | 41 | 292 | 0.0 | 0.9 | 0.00 | 0.57 | 0.00 | 75 | 1007.2 |
| 20260504040803 | 40 | 279 | 0.0 | 1.7 | 0.00 | 0.00 | 0.00 | 68 | 1005.6 |
| 20260504040300 | 39 | 235 | 0.0 | 1.7 | 0.00 | 0.00 | 0.00 | 70 | 1005.6 |
| 20260504040121 | 41 | 230 | 0.0 | 0.0 | 0.00 | 0.57 | 0.00 | 77 | 1007.2 |
| 20260504040033 | 40 | 292 | 0.0 | 0.0 | 0.00 | 0.57 | 0.00 | 77 | 1007.0 |
| 20260504035756 | 39 | 298 | 1.7 | 2.6 | 0.00 | 0.57 | 0.57 | 71 | 1005.5 |
| 20260504035253 | 40 | 269 | 0.0 | 0.9 | 0.00 | 0.57 | 0.57 | 68 | 1005.4 |
| 20260504034751 | 41 | 139 | 0.0 | 2.6 | 0.00 | 0.57 | 0.57 | 66 | 1005.3 |
| 20260504034248 | 41 | 269 | 0.0 | 0.9 | 0.00 | 0.57 | 0.57 | 66 | 1005.5 |
| 20260504034028 | 39 | 205 | 0.0 | 1.7 | 0.00 | 0.57 | 0.57 | 79 | 1006.8 |
| 20260504033745 | 41 | 256 | 0.9 | 3.5 | 0.00 | 0.57 | 0.57 | 66 | 1005.4 |
| 20260504033243 | 41 | 196 | 0.9 | 1.7 | 0.00 | 0.57 | 0.57 | 65 | 1005.1 |
| 20260504033027 | 40 | 180 | 0.0 | 0.0 | 0.00 | 0.57 | 0.57 | 78 | 1006.7 |
| 20260504032740 | 41 | 269 | 1.7 | 2.6 | 0.00 | 0.57 | 0.57 | 66 | 1005.3 |
| 20260504032237 | 40 | 277 | 1.7 | 3.5 | 0.00 | 0.57 | 0.57 | 67 | 1005.0 |
| 20260504032125 | 41 | 292 | 0.0 | 1.7 | 0.00 | 0.57 | 0.57 | 78 | 1006.5 |
| 20260504031733 | 39 | 214 | 0.0 | 3.5 | 0.00 | 0.57 | 0.57 | 74 | 1005.0 |
| 20260504031231 | 39 | 114 | 1.7 | 1.7 | 0.00 | 0.57 | 0.57 | 77 | 1005.1 |
| 20260504031126 | 41 | 202 | 0.0 | 0.9 | 0.00 | 0.57 | 0.57 | 75 | 1006.5 |
| 20260504030726 | 40 | 144 | 0.0 | 1.7 | 0.00 | 0.57 | 0.57 | 77 | 1004.9 |
| 20260504030224 | 41 | 256 | 4.3 | 4.3 | 0.00 | 0.57 | 0.57 | 66 | 1004.8 |
| 20260504030126 | 41 | 270 | 0.0 | 0.0 | 0.00 | 0.57 | 0.57 | 73 | 1006.5 |
| 20260504025720 | 42 | 267 | 0.0 | 3.5 | 0.00 | 0.57 | 0.57 | 64 | 1004.9 |
| 20260504025225 | 42 | 292 | 0.0 | 0.0 | 0.00 | 0.57 | 0.57 | 74 | 1006.5 |
| 20260504025217 | 41 | 231 | 0.9 | 1.7 | 0.00 | 0.57 | 0.57 | 65 | 1004.9 |
| 20260504024714 | 41 | 321 | 0.0 | 1.7 | 0.00 | 0.57 | 0.57 | 65 | 1005.0 |
| 20260504024226 | 42 | 292 | 0.9 | 1.7 | 0.00 | 0.57 | 0.57 | 72 | 1006.5 |
| 20260504024211 | 41 | 350 | 0.9 | 0.9 | 0.00 | 0.57 | 0.57 | 64 | 1004.9 |
| 20260504023708 | 42 | 337 | 0.9 | 1.7 | 0.00 | 0.57 | 0.57 | 63 | 1004.9 |
| 20260504023227 | 43 | 292 | 0.0 | 0.0 | 0.00 | 0.57 | 0.57 | 71 | 1006.5 |
| 20260504023203 | 42 | 320 | 0.0 | 1.7 | 0.00 | 0.57 | 0.57 | 64 | 1004.8 |
| 20260504022700 | 42 | 31 | 0.9 | 1.7 | 0.00 | 0.57 | 0.57 | 64 | 1004.9 |
| 20260504022228 | 43 | 292 | 0.0 | 0.0 | 0.00 | 0.57 | 0.57 | 70 | 1006.5 |
| 20260504022156 | 42 | 321 | 0.0 | 1.7 | 0.00 | 0.57 | 0.57 | 64 | 1004.9 |
| 20260504021654 | 41 | 238 | 0.9 | 0.9 | 0.00 | 0.57 | 0.57 | 68 | 1004.8 |
| 20260504021227 | 43 | 293 | 0.0 | 1.7 | 0.00 | 0.57 | 0.57 | 70 | 1006.2 |
| 20260504021150 | 40 | 157 | 0.0 | 0.9 | 0.00 | 0.57 | 0.57 | 71 | 1004.7 |
| 20260504020647 | 40 | 46 | 1.7 | 1.7 | 0.00 | 0.57 | 0.57 | 72 | 1004.9 |
| 20260504020227 | 43 | 308 | 0.0 | 2.6 | 0.00 | 0.57 | 0.57 | 66 | 1006.2 |
| 20260504020143 | 40 | 68 | 0.0 | 1.7 | 0.00 | 0.57 | 0.57 | 73 | 1004.6 |
| 20260504015640 | 40 | 57 | 0.9 | 1.7 | 0.00 | 0.57 | 0.57 | 71 | 1004.6 |
| 20260504015325 | 44 | 294 | 0.0 | 2.6 | 0.00 | 0.57 | 0.57 | 66 | 1006.4 |
| 20260504015137 | 41 | 113 | 0.0 | 0.9 | 0.00 | 0.57 | 0.57 | 69 | 1004.7 |
| 20260504014632 | 41 | 44 | 0.0 | 0.0 | 0.00 | 0.57 | 0.57 | 67 | 1004.6 |
| 20260504014327 | 44 | 247 | 0.0 | 0.9 | 0.00 | 0.57 | 0.57 | 67 | 1006.3 |
| 20260504014130 | 41 | 46 | 0.0 | 0.0 | 0.00 | 0.57 | 0.57 | 67 | 1004.7 |
| 20260504013627 | 41 | 54 | 0.0 | 1.7 | 0.00 | 0.57 | 0.57 | 69 | 1004.8 |
| 20260504013425 | 45 | 277 | 0.9 | 2.6 | 0.00 | 0.57 | 0.57 | 66 | 1006.2 |
| 20260504013124 | 42 | 28 | 0.0 | 0.9 | 0.00 | 0.57 | 0.57 | 66 | 1004.7 |
| 20260504012621 | 42 | 0 | 0.0 | 1.7 | 0.00 | 0.57 | 0.57 | 66 | 1004.5 |
| 20260504012120 | 42 | 61 | 0.9 | 1.7 | 0.00 | 0.57 | 0.57 | 68 | 1004.5 |
| 20260504011616 | 43 | 14 | 0.0 | 1.7 | 0.00 | 0.57 | 0.57 | 64 | 1004.5 |
| 20260504011425 | 45 | 303 | 2.6 | 4.3 | 0.00 | 0.57 | 0.57 | 68 | 1006.2 |
| 20260504011112 | 43 | 332 | 0.0 | 1.7 | 0.00 | 0.57 | 0.57 | 64 | 1004.5 |
| 20260504010608 | 43 | 334 | 0.0 | 2.6 | 0.00 | 0.57 | 0.57 | 62 | 1004.2 |
| 20260504010525 | 45 | 255 | 0.9 | 3.5 | 0.00 | 0.57 | 0.57 | 67 | 1006.0 |
| 20260504010104 | 43 | 358 | 1.7 | 1.7 | 0.00 | 0.57 | 0.57 | 64 | 1004.3 |
| 20260504005601 | 42 | 325 | 1.7 | 1.7 | 0.00 | 0.57 | 0.57 | 66 | 1004.1 |
| 20260504005527 | 46 | 324 | 0.9 | 4.3 | 0.00 | 0.57 | 0.57 | 65 | 1005.8 |
| 20260504005058 | 43 | 51 | 1.7 | 1.7 | 0.00 | 0.57 | 0.57 | 64 | 1004.0 |
| 20260504004556 | 44 | 22 | 0.0 | 1.7 | 0.00 | 0.57 | 0.57 | 62 | 1004.1 |
| 20260504004526 | 46 | 203 | 0.0 | 2.6 | 0.00 | 0.57 | 0.57 | 65 | 1005.8 |
| 20260504004053 | 44 | 42 | 1.7 | 1.7 | 0.00 | 0.57 | 0.57 | 61 | 1004.0 |
| 20260504003548 | 44 | 269 | 0.0 | 2.6 | 0.00 | 0.57 | 0.57 | 61 | 1003.7 |
| 20260504003527 | 47 | 253 | 0.0 | 1.7 | 0.00 | 0.57 | 0.57 | 65 | 1005.5 |
| 20260504003046 | 44 | 314 | 0.9 | 2.6 | 0.00 | 0.57 | 0.57 | 62 | 1003.8 |
| 20260504002542 | 44 | 338 | 0.0 | 1.7 | 0.00 | 0.57 | 0.57 | 62 | 1003.7 |
| 20260504002527 | 47 | 295 | 0.0 | 2.6 | 0.00 | 0.57 | 0.57 | 65 | 1005.5 |
| 20260504002040 | 45 | 322 | 0.0 | 1.7 | 0.00 | 0.57 | 0.57 | 62 | 1003.6 |
| 20260504001538 | 45 | 15 | 0.0 | 1.7 | 0.00 | 0.57 | 0.57 | 60 | 1003.5 |
| 20260504001531 | 48 | 271 | 0.9 | 2.6 | 0.00 | 0.57 | 0.57 | 64 | 1005.2 |
| 20260504001034 | 46 | 12 | 0.0 | 2.6 | 0.00 | 0.57 | 0.57 | 58 | 1003.5 |
| 20260504000626 | 48 | 319 | 3.5 | 8.7 | 0.00 | 0.57 | 0.57 | 66 | 1005.0 |
| 20260504000531 | 46 | 19 | 1.7 | 3.5 | 0.00 | 0.57 | 0.57 | 57 | 1003.3 |
| 20260504000028 | 46 | 356 | 2.6 | 4.3 | 0.00 | 0.57 | 0.57 | 55 | 1003.1 |
| 20260503235626 | 49 | 292 | 0.0 | 0.9 | 0.00 | 0.57 | 0.57 | 67 | 1004.8 |
| 20260503235527 | 47 | 346 | 2.6 | 4.3 | 0.00 | 0.57 | 0.57 | 55 | 1003.2 |
| 20260503235023 | 47 | 344 | 2.6 | 4.3 | 0.00 | 0.57 | 0.57 | 58 | 1002.8 |
| 20260503234724 | 49 | 340 | 0.9 | 2.6 | 0.00 | 0.57 | 0.57 | 70 | 1004.8 |
| 20260503234521 | 47 | 323 | 3.5 | 3.5 | 0.00 | 0.57 | 0.57 | 58 | 1002.8 |
| 20260503234019 | 47 | 338 | 1.7 | 3.5 | 0.00 | 0.57 | 0.57 | 60 | 1002.8 |
| 20260503233515 | 47 | 323 | 2.6 | 3.5 | 0.00 | 0.57 | 0.57 | 60 | 1002.8 |
| 20260503233011 | 47 | 302 | 1.7 | 3.5 | 0.00 | 0.57 | 0.57 | 62 | 1002.8 |
| 20260503232726 | 49 | 241 | 0.0 | 1.7 | 0.00 | 0.57 | 0.57 | 86 | 1004.5 |
| 20260503232508 | 47 | 31 | 0.0 | 2.6 | 0.00 | 0.57 | 0.57 | 62 | 1002.7 |